Location: Peterborough
(44.3091°N, 78.3197°W)
Time: 16:23:27
(UTC-04:00)

Explorer 7 - Pass Details

Date: 22 March 2023
Orbit: 477 x 653 km, 50.3° (Epoch: 04 June)

Event Time Altitude Azimuth Distance (km) Brightness Sun altitude
Rises 18:04:39 0° 208° (SSW) 2,894 11.1 14.0°
Reaches altitude 10° 18:07:15 10° 196° (SSW) 1,963 10.1 13.5°
Maximum altitude 18:11:04 27° 138° (SE) 1,135 8.3 12.8°
Drops below altitude 10° 18:14:43 10° 80° (E) 1,875 9.0 12.2°
Sets 18:17:08 0° 68° (ENE) 2,739 9.7 11.8°
